,,Stat5,,Stat1,,Stat2,,Stat3,,Stat4,,Wind1,,Wind1,
time,status,PA1M_AVG,status,PR1M_SUM,status,RH1M_AVG,status,SR1M_AVG,status,TA1M_AVG,status,W1dAve1m,status,W1sAve1m,
2003-01-10, 00:00:01,VALID,920.721,VALID,0,VALID,98.6549,VALID,-0.0339617,VALID,19.2819,VALID,28,VALID,0,
2003-01-10, 00:01:00,VALID,920.734,VALID,0,VALID,98.646,VALID,0,VALID,19.2759,VALID,28,VALID,0,
2003-01-10, 00:02:00,VALID,920.747,VALID,0,VALID,98.6867,VALID,0.0169808,VALID,19.2524,VALID,28,VALID,0,
2003-01-10, 00:03:00,VALID,920.763,VALID,0,VALID,98.6829,VALID,0,VALID,19.2461,VALID,28,VALID,0,
2003-01-10, 00:04:00,VALID,920.767,VALID,0,VALID,98.7248,VALID,0.0169808,VALID,19.2399,VALID,28,VALID,0,
2003-01-10, 00:05:00,VALID,920.766,VALID,0,VALID,98.7948,VALID,0.0169808,VALID,19.2457,VALID,28,VALID,0,
2003-01-10, 00:06:00,VALID,920.779,VALID,0,VALID,98.8316,VALID,0.0339617,VALID,19.2491,VALID,28,VALID,0,
2003-01-10, 00:07:00,VALID,920.784,VALID,0,VALID,98.8431,VALID,0.0169808,VALID,19.2526,VALID,28,VALID,0,
2003-01-10, 00:08:00,VALID,920.788,VALID,0,VALID,98.8698,VALID,0.0169808,VALID,19.2459,VALID,28,VALID,0,
2003-01-10, 00:09:01,VALID,920.787,VALID,0,VALID,98.824,VALID,0,VALID,19.2429,VALID,28,VALID,0,
2003-01-10, 00:10:00,VALID,920.786,VALID,0,VALID,98.8189,VALID,0.0169808,VALID,19.2007,VALID,28,VALID,0,
2003-01-10, 00:11:00,VALID,920.78,VALID,0,VALID,98.9143,VALID,0.0169808,VALID,19.2071,VALID,28,VALID,0.0340712,
2003-01-10, 00:12:00,VALID,920.774,VALID,0,VALID,98.9804,VALID,0,VALID,19.2136,VALID,28,VALID,0.194511,
2003-01-10, 00:13:01,VALID,920.767,VALID,0,VALID,98.9817,VALID,0.0169808,VALID,19.22,VALID,28,VALID,0.185491,
2003-01-10, 00:14:00,VALID,920.769,VALID,0,VALID,98.9842,VALID,0,VALID,19.227,VALID,28,VALID,0.189063,
2003-01-10, 00:15:00,VALID,920.769,VALID,0,VALID,99.0249,VALID,0,VALID,19.2404,VALID,28,VALID,0.11951,
2003-01-10, 00:16:01,VALID,920.764,VALID,0,VALID,99.0148,VALID,0,VALID,19.2302,VALID,28,VALID,0.00493421,
2003-01-10, 00:17:00,VALID,920.744,VALID,0,VALID,99.0135,VALID,-0.0169808,VALID,19.2141,VALID,28,VALID,0.0208333,
2003-01-10, 00:18:01,VALID,920.741,VALID,0,VALID,99.0313,VALID,-0.0169808,VALID,19.2143,VALID,28,VALID,0.000801282,
2003-01-10, 00:19:00,VALID,920.736,VALID,0,VALID,99.0656,VALID,-0.0169808,VALID,19.2205,VALID,28,VALID,0,
2003-01-10, 00:20:00,VALID,920.725,VALID,0,VALID,99.1063,VALID,0,VALID,19.2268,VALID,28,VALID,0,
2003-01-10, 00:21:00,VALID,920.718,VALID,0,VALID,99.0593,VALID,-0.0169808,VALID,19.2238,VALID,28,VALID,0.134457,
2003-01-10, 00:22:00,VALID,920.712,VALID,0,VALID,99.0059,VALID,0,VALID,19.2079,VALID,28,VALID,0.225718,
2003-01-10, 00:23:00,VALID,920.695,VALID,0,VALID,98.9003,VALID,0,VALID,19.1621,VALID,28,VALID,0.264062,
2003-01-10, 00:24:00,VALID,920.678,VALID,0,VALID,98.8164,VALID,0,VALID,19.1037,VALID,28,VALID,0.289955,
2003-01-10, 00:25:00,VALID,920.678,VALID,0,VALID,98.7287,VALID,0,VALID,19.0491,VALID,31,VALID,0.443576,
2003-01-10, 00:26:00,VALID,920.659,VALID,0,VALID,98.6905,VALID,0.0169808,VALID,18.9937,VALID,66,VALID,0.475561,
2003-01-10, 00:27:01,VALID,920.646,VALID,0,VALID,98.604,VALID,0,VALID,18.975,VALID,89,VALID,0.577902,
2003-01-10, 00:28:00,VALID,920.638,VALID,0,VALID,98.557,VALID,0.0169808,VALID,18.9358,VALID,95,VALID,0.613477,
2003-01-10, 00:29:00,VALID,920.618,VALID,0,VALID,98.482,VALID,0.0169808,VALID,18.9099,VALID,110,VALID,0.830236,
2003-01-10, 00:30:01,VALID,920.593,VALID,0,VALID,98.5188,VALID,0,VALID,18.9002,VALID,99,VALID,0.561472,
2003-01-10, 00:31:00,VALID,920.586,VALID,0,VALID,98.5087,VALID,0,VALID,18.9305,VALID,84,VALID,0.620739,
2003-01-10, 00:32:01,VALID,920.577,VALID,0,VALID,98.365,VALID,0,VALID,18.9169,VALID,93,VALID,0.766827,
2003-01-10, 00:33:01,VALID,920.559,VALID,0,VALID,98.3344,VALID,0,VALID,18.8942,VALID,107,VALID,0.896176,
2003-01-10, 00:34:01,VALID,920.553,VALID,0,VALID,98.4031,VALID,0,VALID,18.8843,VALID,125,VALID,0.747596,
2003-01-10, 00:35:01,VALID,920.545,VALID,0,VALID,98.529,VALID,0.0169808,VALID,18.9099,VALID,120,VALID,0.874589,
2003-01-10, 00:36:00,VALID,920.554,VALID,0,VALID,98.5837,VALID,0.0339617,VALID,18.9226,VALID,105,VALID,0.790963,
2003-01-10, 00:37:00,VALID,920.546,VALID,0,VALID,98.604,VALID,0.0169808,VALID,18.9397,VALID,119,VALID,0.832617,
2003-01-10, 00:38:01,VALID,920.531,VALID,0,VALID,98.6256,VALID,0,VALID,18.9196,VALID,117,VALID,0.675223,
2003-01-10, 00:39:01,VALID,920.529,VALID,0,VALID,98.6562,VALID,0.0169808,VALID,18.9365,VALID,123,VALID,0.603082,
2003-01-10, 00:40:00,VALID,920.526,VALID,0,VALID,98.6371,VALID,0,VALID,18.9261,VALID,107,VALID,0.686298,
2003-01-10, 00:41:01,VALID,920.533,VALID,0,VALID,98.59,VALID,0,VALID,18.9134,VALID,98,VALID,0.870089,
2003-01-10, 00:42:00,VALID,920.527,VALID,0,VALID,98.5214,VALID,0,VALID,18.9143,VALID,121,VALID,0.966602,
2003-01-10, 00:43:01,VALID,920.516,VALID,0,VALID,98.5252,VALID,0,VALID,18.9081,VALID,131,VALID,0.582559,
2003-01-10, 00:44:01,VALID,920.512,VALID,0,VALID,98.5252,VALID,0,VALID,18.8977,VALID,110,VALID,0.672991,
2003-01-10, 00:45:00,VALID,920.515,VALID,0,VALID,98.4654,VALID,0,VALID,18.898,VALID,112,VALID,0.826705,
2003-01-10, 00:46:01,VALID,920.519,VALID,0,VALID,98.4527,VALID,0.0339617,VALID,18.8811,VALID,113,VALID,0.725561,
2003-01-10, 00:47:01,VALID,920.52,VALID,0,VALID,98.5265,VALID,0.0169808,VALID,18.8783,VALID,131,VALID,0.32278,
2003-01-10, 00:48:01,VALID,920.514,VALID,0,VALID,98.5964,VALID,0.0339617,VALID,18.891,VALID,136,VALID,0.322917,
2003-01-10, 00:49:01,VALID,920.514,VALID,0,VALID,98.6371,VALID,0.0169808,VALID,18.9009,VALID,138,VALID,0.500206,
2003-01-10, 00:50:00,VALID,920.514,VALID,0,VALID,98.618,VALID,0,VALID,18.9072,VALID,112,VALID,0.396537,
2003-01-10, 00:51:01,VALID,920.509,VALID,0,VALID,98.5786,VALID,0,VALID,18.8913,VALID,107,VALID,0.48125,
2003-01-10, 00:52:01,VALID,920.503,VALID,0,VALID,98.585,VALID,0,VALID,18.8719,VALID,106,VALID,0.545536,
2003-01-10, 00:53:01,VALID,920.492,VALID,0,VALID,98.6244,VALID,-0.0679233,VALID,18.8721,VALID,134,VALID,0.579427,
2003-01-10, 00:54:01,VALID,920.483,VALID,0,VALID,98.6854,VALID,-0.0339617,VALID,18.8786,VALID,141,VALID,0.597356,
2003-01-10, 00:55:01,VALID,920.466,VALID,0,VALID,98.7236,VALID,-0.0509425,VALID,18.8987,VALID,136,VALID,0.562054,
2003-01-10, 00:56:01,VALID,920.463,VALID,0,VALID,98.7287,VALID,-0.0169808,VALID,18.8878,VALID,127,VALID,0.466406,
2003-01-10, 00:57:01,VALID,920.447,VALID,0,VALID,98.749,VALID,-0.0339617,VALID,18.8883,VALID,121,VALID,0.54772,
2003-01-10, 00:58:01,VALID,920.433,VALID,0,VALID,98.8151,VALID,-0.0509425,VALID,18.8915,VALID,128,VALID,0.418586,
2003-01-10, 00:59:01,VALID,920.413,VALID,0,VALID,98.8507,VALID,-0.0509425,VALID,18.9049,VALID,121,VALID,0.421875,
2003-01-10, 01:00:01,VALID,920.417,VALID,0,VALID,98.8774,VALID,-0.0339617,VALID,18.9046,VALID,125,VALID,0.334135,
2003-01-10, 01:01:01,VALID,920.403,VALID,0,VALID,98.9296,VALID,-0.0509425,VALID,18.9143,VALID,135,VALID,0.497944,
2003-01-10, 01:02:01,VALID,920.393,VALID,0,VALID,98.9232,VALID,-0.0169808,VALID,18.921,VALID,130,VALID,0.306691,
2003-01-10, 01:03:01,VALID,920.393,VALID,0,VALID,98.9321,VALID,-0.0679233,VALID,18.9243,VALID,144,VALID,0.535773,
2003-01-10, 01:04:01,VALID,920.382,VALID,0,VALID,98.9397,VALID,0,VALID,18.9245,VALID,134,VALID,0.53864,
2003-01-10, 01:05:01,VALID,920.382,VALID,0,VALID,98.9143,VALID,-0.0169808,VALID,18.9275,VALID,150,VALID,0.660156,
2003-01-10, 01:06:01,VALID,920.372,VALID,0,VALID,98.8584,VALID,-0.0339617,VALID,18.9046,VALID,148,VALID,0.803125,
2003-01-10, 01:07:01,VALID,920.37,VALID,0,VALID,98.7986,VALID,-0.0169808,VALID,18.882,VALID,142,VALID,0.743273,
2003-01-10, 01:08:01,VALID,920.38,VALID,0,VALID,98.7808,VALID,-0.0679233,VALID,18.8721,VALID,119,VALID,0.517228,
2003-01-10, 01:09:01,VALID,920.371,VALID,0,VALID,98.7948,VALID,-0.0509425,VALID,18.8957,VALID,113,VALID,0.165402,
2003-01-10, 01:10:00,VALID,920.374,VALID,0,VALID,98.777,VALID,0,VALID,18.8855,VALID,127,VALID,0.311719,
2003-01-10, 01:11:00,VALID,920.359,VALID,0,VALID,98.7083,VALID,-0.0169808,VALID,18.8857,VALID,139,VALID,0.655405,
2003-01-10, 01:12:00,VALID,920.347,VALID,0,VALID,98.6346,VALID,-0.0679233,VALID,18.8795,VALID,128,VALID,0.618627,
2003-01-10, 01:13:00,VALID,920.351,VALID,0,VALID,98.5888,VALID,-0.0339617,VALID,18.8622,VALID,137,VALID,0.664063,
2003-01-10, 01:14:00,VALID,920.338,VALID,0,VALID,98.6129,VALID,-0.0679233,VALID,18.8793,VALID,139,VALID,0.601963,
2003-01-10, 01:15:00,VALID,920.317,VALID,0,VALID,98.6091,VALID,-0.0679233,VALID,18.889,VALID,142,VALID,0.452508,
2003-01-10, 01:16:00,VALID,920.301,VALID,0,VALID,98.5875,VALID,-0.0339617,VALID,18.8915,VALID,133,VALID,0.563902,
2003-01-10, 01:17:00,VALID,920.284,VALID,0,VALID,98.5722,VALID,-0.0509425,VALID,18.9017,VALID,102,VALID,0.414679,
2003-01-10, 01:18:00,VALID,920.262,VALID,0,VALID,98.5659,VALID,-0.0169808,VALID,18.9014,VALID,109,VALID,0.362331,
2003-01-10, 01:19:00,VALID,920.247,VALID,0,VALID,98.4438,VALID,-0.0509425,VALID,18.8984,VALID,108,VALID,0.657812,
2003-01-10, 01:20:00,VALID,920.219,VALID,0,VALID,98.365,VALID,-0.0679233,VALID,18.8818,VALID,115,VALID,0.516964,
2003-01-10, 01:21:00,VALID,920.212,VALID,0,VALID,98.3319,VALID,-0.0509425,VALID,18.8823,VALID,116,VALID,0.369141,
2003-01-10, 01:22:00,VALID,920.199,VALID,0,VALID,98.2709,VALID,-0.0509425,VALID,18.8825,VALID,114,VALID,0.434696,
2003-01-10, 01:23:00,VALID,920.18,VALID,0,VALID,98.2416,VALID,0.0509425,VALID,18.8741,VALID,138,VALID,0.609598,
2003-01-10, 01:24:00,VALID,920.161,VALID,0,VALID,98.2645,VALID,0.0509425,VALID,18.8771,VALID,132,VALID,0.546484,
2003-01-10, 01:25:00,VALID,920.145,VALID,0,VALID,98.1933,VALID,0.0509425,VALID,18.8704,VALID,136,VALID,0.613387,
2003-01-10, 01:26:00,VALID,920.129,VALID,0,VALID,98.159,VALID,0.101885,VALID,18.8908,VALID,119,VALID,0.804482,
2003-01-10, 01:27:00,VALID,920.105,VALID,0,VALID,98.0153,VALID,0.0849042,VALID,18.8709,VALID,113,VALID,0.819129,
2003-01-10, 01:28:00,VALID,920.074,VALID,0,VALID,97.8449,VALID,0.0509425,VALID,18.8612,VALID,111,VALID,0.895032,
2003-01-10, 01:29:00,VALID,920.056,VALID,0,VALID,97.7317,VALID,0.0679233,VALID,18.8478,VALID,112,VALID,0.94264,
2003-01-10, 01:30:00,VALID,920.032,VALID,0,VALID,97.6986,VALID,0.0339617,VALID,18.8515,VALID,109,VALID,0.840745,
2003-01-10, 01:31:00,VALID,920.014,VALID,0,VALID,97.6491,VALID,0.0679233,VALID,18.8483,VALID,104,VALID,0.864515,
2003-01-10, 01:32:00,VALID,919.995,VALID,0,VALID,97.7063,VALID,0.0849042,VALID,18.8416,VALID,112,VALID,0.906883,
2003-01-10, 01:33:00,VALID,919.995,VALID,0,VALID,97.8055,VALID,0.0679233,VALID,18.8647,VALID,99,VALID,0.690039,
2003-01-10, 01:34:00,VALID,919.973,VALID,0,VALID,97.8652,VALID,0.0509425,VALID,18.8744,VALID,99,VALID,0.717188,
2003-01-10, 01:35:00,VALID,919.959,VALID,0,VALID,97.9237,VALID,0.0849042,VALID,18.8647,VALID,101,VALID,0.905382,
2003-01-10, 01:36:00,VALID,919.951,VALID,0,VALID,97.9962,VALID,0.0339617,VALID,18.8675,VALID,97,VALID,0.978766,
2003-01-10, 01:37:00,VALID,919.933,VALID,0,VALID,98.0687,VALID,0.0679233,VALID,18.8679,VALID,103,VALID,1.01071,
2003-01-10, 01:38:00,VALID,919.914,VALID,0,VALID,98.0687,VALID,0.0169808,VALID,18.8592,VALID,102,VALID,1.07637,
2003-01-10, 01:39:00,VALID,919.894,VALID,0,VALID,98.0827,VALID,0,VALID,18.853,VALID,109,VALID,1.03336,
2003-01-10, 01:40:00,VALID,919.875,VALID,0,VALID,98.1348,VALID,0,VALID,18.8336,VALID,103,VALID,0.625617,
2003-01-10, 01:41:00,VALID,919.864,VALID,0,VALID,98.1717,VALID,0.0169808,VALID,18.8435,VALID,112,VALID,0.590909,
2003-01-10, 01:42:00,VALID,919.844,VALID,0,VALID,98.2086,VALID,-0.0169808,VALID,18.8361,VALID,95,VALID,0.435096,
2003-01-10, 01:43:00,VALID,919.838,VALID,0,VALID,98.1501,VALID,-0.0169808,VALID,18.8331,VALID,119,VALID,1.05695,
2003-01-10, 01:44:00,VALID,919.81,VALID,0,VALID,98.2048,VALID,0,VALID,18.8271,VALID,136,VALID,0.554487,
2003-01-10, 01:45:00,VALID,919.801,VALID,0,VALID,98.262,VALID,-0.0169808,VALID,18.8199,VALID,114,VALID,0.475946,
2003-01-10, 01:46:00,VALID,919.777,VALID,0,VALID,98.281,VALID,-0.0169808,VALID,18.8174,VALID,140,VALID,0.619721,
2003-01-10, 01:47:00,VALID,919.759,VALID,0,VALID,98.2632,VALID,-0.0169808,VALID,18.8303,VALID,116,VALID,0.676562,
2003-01-10, 01:48:00,VALID,919.734,VALID,0,VALID,98.2404,VALID,-0.0169808,VALID,18.8077,VALID,107,VALID,0.535937,
2003-01-10, 01:49:00,VALID,919.708,VALID,0,VALID,98.2645,VALID,-0.0339617,VALID,18.8112,VALID,129,VALID,0.920356,
2003-01-10, 01:50:00,VALID,919.694,VALID,0,VALID,98.1971,VALID,-0.0339617,VALID,18.7913,VALID,120,VALID,0.825521,
2003-01-10, 01:51:00,VALID,919.669,VALID,0,VALID,98.2327,VALID,-0.0169808,VALID,18.7916,VALID,103,VALID,0.710938,
2003-01-10, 01:52:00,VALID,919.641,VALID,0,VALID,98.2747,VALID,0,VALID,18.7844,VALID,147,VALID,0.959961,
2003-01-10, 01:53:00,VALID,919.61,VALID,0,VALID,98.3306,VALID,-0.0509425,VALID,18.7921,VALID,150,VALID,0.899493,
2003-01-10, 01:54:00,VALID,919.586,VALID,0,VALID,98.379,VALID,-0.0849042,VALID,18.7891,VALID,137,VALID,0.967928,
2003-01-10, 01:55:00,VALID,919.551,VALID,0,VALID,98.4387,VALID,-0.101885,VALID,18.7831,VALID,95,VALID,0.566998,
2003-01-10, 01:56:00,VALID,919.535,VALID,0,VALID,98.4998,VALID,-0.0679233,VALID,18.7761,VALID,118,VALID,0.834335,
2003-01-10, 01:57:00,VALID,919.497,VALID,0,VALID,98.5201,VALID,-0.0849042,VALID,18.7602,VALID,102,VALID,0.670436,
2003-01-10, 01:58:00,VALID,919.474,VALID,0,VALID,98.5214,VALID,-0.101885,VALID,18.7478,VALID,106,VALID,0.998998,
2003-01-10, 01:59:00,VALID,919.452,VALID,0,VALID,98.4947,VALID,-0.0849042,VALID,18.712,VALID,107,VALID,1.29914,
2003-01-10, 02:00:00,VALID,919.433,VALID,0,VALID,98.5646,VALID,-0.101885,VALID,18.7055,VALID,100,VALID,0.857052,
2003-01-10, 02:01:00,VALID,919.415,VALID,0,VALID,98.6117,VALID,-0.101885,VALID,18.7055,VALID,125,VALID,0.770508,
2003-01-10, 02:02:00,VALID,919.402,VALID,0,VALID,98.6409,VALID,-0.101885,VALID,18.6954,VALID,138,VALID,0.822545,
2003-01-10, 02:03:00,VALID,919.387,VALID,0,VALID,98.6218,VALID,-0.101885,VALID,18.6924,VALID,146,VALID,1.12652,
2003-01-10, 02:04:00,VALID,919.374,VALID,0,VALID,98.6422,VALID,-0.0849042,VALID,18.6862,VALID,140,VALID,0.999599,
2003-01-10, 02:05:00,VALID,919.357,VALID,0,VALID,98.6905,VALID,-0.0849042,VALID,18.6792,VALID,143,VALID,1.03661,
2003-01-10, 02:06:00,VALID,919.348,VALID,0,VALID,98.7935,VALID,-0.101885,VALID,18.7088,VALID,147,VALID,0.901563,
2003-01-10, 02:07:00,VALID,919.323,VALID,0,VALID,98.8494,VALID,-0.0849042,VALID,18.7215,VALID,152,VALID,1.01563,
2003-01-10, 02:08:00,VALID,919.308,VALID,0,VALID,98.899,VALID,-0.0169808,VALID,18.7237,VALID,136,VALID,0.791324,
2003-01-10, 02:09:00,VALID,919.287,VALID,0,VALID,98.9385,VALID,0.0339617,VALID,18.7198,VALID,146,VALID,0.937737,
2003-01-10, 02:10:00,VALID,919.272,VALID,0,VALID,98.9893,VALID,0.0509425,VALID,18.7332,VALID,137,VALID,1.002,
2003-01-10, 02:11:00,VALID,919.258,VALID,0,VALID,99.0338,VALID,0,VALID,18.7263,VALID,142,VALID,1.0516,
2003-01-10, 02:12:00,VALID,919.23,VALID,0,VALID,99.0822,VALID,0,VALID,18.7394,VALID,154,VALID,1.13902,
2003-01-10, 02:13:00,VALID,919.202,VALID,0,VALID,99.1038,VALID,0.0169808,VALID,18.7263,VALID,153,VALID,1.01624,
2003-01-10, 02:14:00,VALID,919.187,VALID,0,VALID,99.1763,VALID,0.0169808,VALID,18.7493,VALID,150,VALID,1.07686,
2003-01-10, 02:15:00,VALID,919.19,VALID,0,VALID,99.2157,VALID,0.0339617,VALID,18.7491,VALID,143,VALID,0.799023,
2003-01-10, 02:16:00,VALID,919.184,VALID,0,VALID,99.2144,VALID,0.0509425,VALID,18.7556,VALID,126,VALID,0.739955,
2003-01-10, 02:17:00,VALID,919.168,VALID,0,VALID,99.2284,VALID,0.0339617,VALID,18.7461,VALID,144,VALID,0.597656,
2003-01-10, 02:18:00,VALID,919.141,VALID,0,VALID,99.2564,VALID,0.0169808,VALID,18.756,VALID,128,VALID,0.547276,
2003-01-10, 02:19:00,VALID,919.119,VALID,0,VALID,99.2754,VALID,0,VALID,18.7362,VALID,125,VALID,0.411384,
2003-01-10, 02:20:00,VALID,919.088,VALID,0,VALID,99.278,VALID,0,VALID,18.7459,VALID,135,VALID,0.345508,
2003-01-10, 02:21:00,VALID,919.069,VALID,0,VALID,99.2843,VALID,0,VALID,18.7563,VALID,122,VALID,0.580236,
2003-01-10, 02:22:00,VALID,919.033,VALID,0,VALID,99.2894,VALID,-0.0169808,VALID,18.7434,VALID,114,VALID,0.758635,
2003-01-10, 02:23:00,VALID,919.007,VALID,0,VALID,99.3047,VALID,0,VALID,18.7434,VALID,105,VALID,1.04806,
2003-01-10, 02:24:00,VALID,918.974,VALID,0,VALID,99.3276,VALID,0,VALID,18.7491,VALID,119,VALID,0.949319,
2003-01-10, 02:25:00,VALID,918.938,VALID,0,VALID,99.3263,VALID,0,VALID,18.7625,VALID,106,VALID,1.06949,
2003-01-10, 02:26:00,VALID,918.89,VALID,0,VALID,99.292,VALID,0.0169808,VALID,18.7521,VALID,104,VALID,0.989984,
2003-01-10, 02:27:00,VALID,918.865,VALID,0,VALID,99.25,VALID,0,VALID,18.7531,VALID,108,VALID,1.1764,
2003-01-10, 02:28:00,VALID,918.83,VALID,0,VALID,99.2335,VALID,0,VALID,18.7456,VALID,118,VALID,0.72234,
2003-01-10, 02:29:00,VALID,918.812,VALID,0,VALID,99.1724,VALID,0.0509425,VALID,18.7526,VALID,108,VALID,1.14922,
2003-01-10, 02:30:00,VALID,918.793,VALID,0,VALID,99.0466,VALID,0.0339617,VALID,18.7267,VALID,122,VALID,1.11094,
2003-01-10, 02:31:00,VALID,918.783,VALID,0,VALID,98.983,VALID,0.0169808,VALID,18.721,VALID,145,VALID,0.776693,
2003-01-10, 02:32:00,VALID,918.765,VALID,0,VALID,98.9321,VALID,0.0169808,VALID,18.7011,VALID,121,VALID,0.708534,
2003-01-10, 02:33:00,VALID,918.774,VALID,0,VALID,98.838,VALID,0.0169808,VALID,18.6847,VALID,122,VALID,0.548884,
2003-01-10, 02:34:00,VALID,918.764,VALID,0,VALID,98.7566,VALID,0,VALID,18.682,VALID,112,VALID,0.680859,
2003-01-10, 02:35:00,VALID,918.765,VALID,0,VALID,98.5417,VALID,0,VALID,18.6465,VALID,115,VALID,0.789063,
2003-01-10, 02:36:00,VALID,918.748,VALID,0,VALID,98.3828,VALID,0,VALID,18.607,VALID,87,VALID,0.790913,
2003-01-10, 02:37:00,VALID,918.724,VALID,0,VALID,98.3421,VALID,0,VALID,18.6107,VALID,97,VALID,0.638021,
2003-01-10, 02:38:00,VALID,918.711,VALID,0.2,VALID,98.365,VALID,0.0169808,VALID,18.6139,VALID,82,VALID,0.488782,
2003-01-10, 02:39:00,VALID,918.679,VALID,0,VALID,98.3612,VALID,0,VALID,18.6236,VALID,70,VALID,0.533923,
2003-01-10, 02:40:00,VALID,918.652,VALID,0,VALID,98.2798,VALID,0,VALID,18.6134,VALID,74,VALID,0.790665,
2003-01-10, 02:41:00,VALID,918.635,VALID,0,VALID,98.2327,VALID,0,VALID,18.6042,VALID,77,VALID,0.859992,
2003-01-10, 02:42:00,VALID,918.615,VALID,0,VALID,98.2124,VALID,0,VALID,18.5846,VALID,79,VALID,0.786106,
2003-01-10, 02:43:00,VALID,918.604,VALID,0,VALID,98.206,VALID,0.0169808,VALID,18.5724,VALID,84,VALID,0.729492,
2003-01-10, 02:44:00,VALID,918.587,VALID,0,VALID,98.2391,VALID,-0.0169808,VALID,18.5495,VALID,82,VALID,0.457812,
2003-01-10, 02:45:00,VALID,918.568,VALID,0,VALID,98.2989,VALID,0,VALID,18.5369,VALID,81,VALID,0.853082,
2003-01-10, 02:46:00,VALID,918.554,VALID,0,VALID,98.3497,VALID,0.0169808,VALID,18.5269,VALID,72,VALID,0.609575,
2003-01-10, 02:47:00,VALID,918.54,VALID,0,VALID,98.3764,VALID,0.0169808,VALID,18.5205,VALID,71,VALID,0.726116,
2003-01-10, 02:48:00,VALID,918.538,VALID,0,VALID,98.4502,VALID,0.0169808,VALID,18.5075,VALID,66,VALID,0.65332,
2003-01-10, 02:49:00,VALID,918.525,VALID,0,VALID,98.4731,VALID,0.0509425,VALID,18.4847,VALID,65,VALID,0.765203,
2003-01-10, 02:50:00,VALID,918.52,VALID,0,VALID,98.5074,VALID,0,VALID,18.4782,VALID,61,VALID,0.577714,
2003-01-10, 02:51:00,VALID,918.498,VALID,0,VALID,98.5074,VALID,0,VALID,18.4718,VALID,64,VALID,0.62429,
2003-01-10, 02:52:00,VALID,918.48,VALID,0,VALID,98.5583,VALID,0.0339617,VALID,18.4619,VALID,52,VALID,0.653446,
2003-01-10, 02:53:00,VALID,918.484,VALID,0,VALID,98.5557,VALID,0,VALID,18.4623,VALID,49,VALID,0.781641,
2003-01-10, 02:54:00,VALID,918.476,VALID,0,VALID,98.5748,VALID,-0.0339617,VALID,18.4434,VALID,45,VALID,0.776843,
2003-01-10, 02:55:00,VALID,918.452,VALID,0,VALID,98.5799,VALID,-0.101885,VALID,18.4381,VALID,41,VALID,0.914268,
2003-01-10, 02:56:00,VALID,918.438,VALID,0,VALID,98.6129,VALID,-0.101885,VALID,18.4153,VALID,44,VALID,0.894215,
2003-01-10, 02:57:00,VALID,918.429,VALID,0,VALID,98.6129,VALID,-0.101885,VALID,18.4185,VALID,43,VALID,0.818359,
2003-01-10, 02:58:00,VALID,918.414,VALID,0,VALID,98.6511,VALID,-0.0849042,VALID,18.4153,VALID,51,VALID,0.83125,
2003-01-10, 02:59:00,VALID,918.401,VALID,0,VALID,98.6371,VALID,-0.101885,VALID,18.4153,VALID,48,VALID,0.778646,
2003-01-10, 03:00:00,VALID,918.383,VALID,0,VALID,98.5939,VALID,-0.101885,VALID,18.422,VALID,49,VALID,0.698518,
2003-01-10, 03:01:00,VALID,918.369,VALID,0,VALID,98.5824,VALID,-0.0849042,VALID,18.4086,VALID,53,VALID,0.65625,
2003-01-10, 03:02:00,VALID,918.357,VALID,0,VALID,98.5786,VALID,-0.101885,VALID,18.3991,VALID,53,VALID,0.685156,
2003-01-10, 03:03:00,VALID,918.349,VALID,0,VALID,98.6078,VALID,-0.0849042,VALID,18.3924,VALID,59,VALID,0.698902,
2003-01-10, 03:04:00,VALID,918.336,VALID,0,VALID,98.6091,VALID,-0.101885,VALID,18.3993,VALID,58,VALID,0.533717,
2003-01-10, 03:05:00,VALID,918.332,VALID,0,VALID,98.6346,VALID,-0.101885,VALID,18.3989,VALID,58,VALID,0.409564,
2003-01-10, 03:06:00,VALID,918.318,VALID,0,VALID,98.6155,VALID,-0.101885,VALID,18.3862,VALID,58,VALID,0.609575,
2003-01-10, 03:07:00,VALID,918.312,VALID,0,VALID,98.6574,VALID,-0.118866,VALID,18.3894,VALID,59,VALID,0.609992,
2003-01-10, 03:08:00,VALID,918.306,VALID,0,VALID,98.6371,VALID,-0.0169808,VALID,18.3751,VALID,70,VALID,0.692508,
2003-01-10, 03:09:00,VALID,918.284,VALID,0,VALID,98.6307,VALID,0,VALID,18.3587,VALID,66,VALID,0.691817,
2003-01-10, 03:10:00,VALID,918.279,VALID,0,VALID,98.6193,VALID,-0.0169808,VALID,18.346,VALID,67,VALID,0.656672,
2003-01-10, 03:11:00,VALID,918.267,VALID,0,VALID,98.6193,VALID,0,VALID,18.343,VALID,63,VALID,0.767383,
2003-01-10, 03:12:00,VALID,918.261,VALID,0,VALID,98.6447,VALID,0.0169808,VALID,18.3398,VALID,52,VALID,0.801116,
2003-01-10, 03:13:00,VALID,918.271,VALID,0,VALID,98.6714,VALID,0,VALID,18.3304,VALID,50,VALID,0.605903,
2003-01-10, 03:14:00,VALID,918.276,VALID,0,VALID,98.6969,VALID,-0.0169808,VALID,18.3334,VALID,50,VALID,0.418269,
2003-01-10, 03:15:00,VALID,918.276,VALID,0,VALID,98.721,VALID,0,VALID,18.3269,VALID,50,VALID,0.383705,
2003-01-10, 03:16:00,VALID,918.291,VALID,0,VALID,98.7528,VALID,0.0169808,VALID,18.307,VALID,50,VALID,0.32207,
2003-01-10, 03:17:00,VALID,918.304,VALID,0,VALID,98.7592,VALID,0,VALID,18.3008,VALID,50,VALID,0.21685,
2003-01-10, 03:18:00,VALID,918.302,VALID,0,VALID,98.7884,VALID,0,VALID,18.2847,VALID,50,VALID,0.0688734,
2003-01-10, 03:19:00,VALID,918.317,VALID,0,VALID,98.838,VALID,0,VALID,18.2881,VALID,50,VALID,0.283854,
2003-01-10, 03:20:00,VALID,918.315,VALID,0,VALID,98.8774,VALID,0.0169808,VALID,18.2879,VALID,50,VALID,0.465144,
2003-01-10, 03:21:00,VALID,918.316,VALID,0,VALID,98.8609,VALID,0,VALID,18.275,VALID,48,VALID,0.595806,
2003-01-10, 03:22:00,VALID,918.3,VALID,0,VALID,98.9003,VALID,0,VALID,18.2657,VALID,48,VALID,0.752003,
2003-01-10, 03:23:00,VALID,918.307,VALID,0,VALID,98.9194,VALID,0,VALID,18.2727,VALID,48,VALID,0.871711,
2003-01-10, 03:24:00,VALID,918.296,VALID,0,VALID,98.9283,VALID,0,VALID,18.2694,VALID,48,VALID,0.820313,
2003-01-10, 03:25:00,VALID,918.29,VALID,0,VALID,98.9283,VALID,-0.0339617,VALID,18.2597,VALID,51,VALID,0.829883,
2003-01-10, 03:26:00,VALID,918.296,VALID,0,VALID,98.9232,VALID,0,VALID,18.2494,VALID,55,VALID,0.805357,
2003-01-10, 03:27:00,VALID,918.3,VALID,0,VALID,98.8927,VALID,-0.0169808,VALID,18.2268,VALID,58,VALID,0.787326,
2003-01-10, 03:28:00,VALID,918.308,VALID,0,VALID,98.9041,VALID,-0.0169808,VALID,18.2302,VALID,58,VALID,0.491386,
2003-01-10, 03:29:00,VALID,918.318,VALID,0,VALID,98.9092,VALID,0,VALID,18.23,VALID,52,VALID,0.46317,
2003-01-10, 03:30:00,VALID,918.327,VALID,0,VALID,98.9385,VALID,0,VALID,18.2203,VALID,46,VALID,0.397656,
2003-01-10, 03:31:00,VALID,918.336,VALID,0,VALID,98.9626,VALID,0,VALID,18.2201,VALID,46,VALID,0.476351,
2003-01-10, 03:32:00,VALID,918.335,VALID,0,VALID,98.9881,VALID,0,VALID,18.2367,VALID,37,VALID,0.609992,
2003-01-10, 03:33:00,VALID,918.354,VALID,0,VALID,98.9448,VALID,0,VALID,18.2138,VALID,40,VALID,0.725142,
2003-01-10, 03:34:00,VALID,918.351,VALID,0,VALID,98.9563,VALID,-0.0169808,VALID,18.2078,VALID,43,VALID,1.0022,
2003-01-10, 03:35:00,VALID,918.354,VALID,0,VALID,98.9626,VALID,0,VALID,18.2044,VALID,41,VALID,0.880962,